Elmira, NY

6:09 PM EST on November 20, 2017 (GMT -0500)
Elmira-Corning Regional

Weather History for KELM - September, 2012

Change the Weather History Date:

Thursday, September 6, 2012

  Actual Average Record
Temperature  
Mean Temperature 72 °F -  
Max Temperature 86 °F 77 °F 95 °F (1954)
Min Temperature 60 °F 52 °F 33 °F (1996)
Cooling Degree Days 7    
Growing Degree Days 22 (Base 50)    
Moisture  
Dew Point 62 °F    
Average Humidity 85    
Maximum Humidity 100    
Minimum Humidity 48    
Precipitation  
Precipitation 0.05 in - - ()
Sea Level Pressure  
Sea Level Pressure 29.88 in    
Wind  
Wind Speed 1 mph (NE)    
Max Wind Speed 16 mph    
Max Gust Speed 29 mph    
Visibility 7 miles    
Events Fog , Thunderstorm    
Averages and records for this station are not official NWS values.
T = Trace of Precipitation, MM = Missing Value Source: NWS Daily Summary

Daily Weather History Graph

Daily Weather History Graph

Search for Another Location

Airport or City:

Trip Planner

Search our weather history database for the weather conditions in past years. The results will help you decide how hot, cold, wet, or windy it might be!

Date:

Astronomy

Sep. 06, 2012 Rise Set
Actual Time 6:38 AM EDT 7:32 PM EDT
Civil Twilight 6:10 AM EDT 8:00 PM EDT
Nautical Twilight 5:36 AM EDT 8:34 PM EDT
Astronomical Twilight 5:01 AM EDT 9:09 PM EDT
Moon 10:33 PM EDT (9/6) 12:43 PM EDT (9/6)
Length of Visible Light 13h 50m
Length of Day
12h 53m
Waning Gibbous, 67% of the Moon is Illuminated
Sep 6
Waning Gibbous
Sep 8
Last Quarter
Sep 15
New
Sep 22
First Quarter
Sep 29
Full

Hourly Weather History & Observations

Time (EDT) Temp. Heat Index Dew Point Humidity Pressure Visibility Wind Dir Wind Speed Gust Speed Precip Events Conditions
12:53 AM 60.1 °F - 57.9 °F 93% 29.86 in 8.0 mi Calm Calm - N/A   Clear
1:08 AM 60.8 °F - 59.0 °F 94% 29.88 in 10.0 mi Calm Calm - N/A   Scattered Clouds
1:16 AM 60.8 °F - 57.2 °F 88% 29.87 in 10.0 mi Calm Calm - N/A   Mostly Cloudy
1:23 AM 62.6 °F - 59.0 °F 88% 29.87 in 10.0 mi Calm Calm - N/A   Scattered Clouds
1:53 AM 60.1 °F - 57.9 °F 93% 29.86 in 9.0 mi North 3.5 mph - N/A   Clear
2:23 AM 60.8 °F - 57.2 °F 88% 29.88 in 4.0 mi Calm Calm - N/A   Partly Cloudy
2:30 AM 60.8 °F - 59.0 °F 94% 29.88 in 2.5 mi Calm Calm - N/A   Mostly Cloudy
2:39 AM 60.8 °F - 59.0 °F 94% 29.88 in 1.5 mi Calm Calm - N/A   Mostly Cloudy
2:53 AM 61.0 °F - 59.0 °F 93% 29.87 in 1.2 mi Calm Calm - N/A   Overcast
3:21 AM 60.8 °F - 57.2 °F 88% 29.87 in 2.5 mi Calm Calm - N/A   Mostly Cloudy
3:30 AM 60.8 °F - 59.0 °F 94% 29.87 in 6.0 mi Calm Calm - N/A   Overcast
3:53 AM 62.1 °F - 60.1 °F 93% 29.86 in 9.0 mi Calm Calm - N/A   Overcast
4:24 AM 62.6 °F - 60.8 °F 94% 29.88 in 6.0 mi Calm Calm - N/A   Mostly Cloudy
4:49 AM 62.6 °F - 60.8 °F 94% 29.88 in 10.0 mi Calm Calm - N/A   Mostly Cloudy
4:53 AM 62.1 °F - 60.1 °F 93% 29.86 in 9.0 mi Calm Calm - N/A   Scattered Clouds
5:39 AM 60.8 °F - 59.0 °F 94% 29.88 in 8.0 mi Calm Calm - N/A   Mostly Cloudy
5:53 AM 61.0 °F - 59.0 °F 93% 29.86 in 7.0 mi Calm Calm - N/A   Overcast
6:35 AM 60.8 °F - 60.8 °F 100% 29.89 in 1.8 mi Calm Calm - N/A   Overcast
6:41 AM 60.8 °F - 59.0 °F 94% 29.89 in 0.8 mi Calm Calm - N/A   Overcast
6:50 AM 60.8 °F - 59.0 °F 94% 29.90 in 0.2 mi Calm Calm - N/A Fog Fog
6:53 AM 61.0 °F - 60.1 °F 97% 29.89 in 0.2 mi Calm Calm - N/A Fog Fog
7:53 AM 61.0 °F - 60.1 °F 97% 29.89 in 1.2 mi Calm Calm - N/A   Overcast
8:12 AM 60.8 °F - 60.8 °F 100% 29.90 in 0.8 mi Calm Calm - N/A   Overcast
8:17 AM 60.8 °F - 60.8 °F 100% 29.90 in 2.0 mi Calm Calm - N/A   Overcast
8:25 AM 60.8 °F - 60.8 °F 100% 29.90 in 0.8 mi Calm Calm - N/A   Overcast
8:44 AM 62.6 °F - 60.8 °F 94% 29.90 in 1.0 mi Calm Calm - N/A   Mostly Cloudy
8:53 AM 63.0 °F - 61.0 °F 93% 29.89 in 1.0 mi Calm Calm - N/A   Mostly Cloudy
9:09 AM 64.4 °F - 60.8 °F 88% 29.89 in 4.0 mi Calm Calm - N/A   Scattered Clouds
9:53 AM 69.1 °F - 63.0 °F 81% 29.88 in 10.0 mi WSW 3.5 mph - N/A   Clear
10:53 AM 75.9 °F - 64.9 °F 69% 29.88 in 10.0 mi SW 5.8 mph - N/A   Clear
11:53 AM 82.0 °F 83.8 °F 64.9 °F 56% 29.86 in 10.0 mi Variable 5.8 mph - N/A   Clear
12:53 PM 81.0 °F 82.5 °F 64.0 °F 56% 29.86 in 10.0 mi SSW 4.6 mph - N/A   Partly Cloudy
1:53 PM 84.9 °F 86.1 °F 64.0 °F 49% 29.86 in 10.0 mi WSW 9.2 mph - N/A   Mostly Cloudy
2:53 PM 84.9 °F 85.9 °F 63.0 °F 48% 29.83 in 10.0 mi SW 9.2 mph - N/A   Partly Cloudy
3:53 PM 84.9 °F 86.1 °F 64.0 °F 49% 29.81 in 10.0 mi SSW 6.9 mph - N/A Thunderstorm Clear
4:32 PM 71.6 °F - 60.8 °F 69% 29.86 in 10.0 mi NNE 16.1 mph 28.8 mph 0.00 in Thunderstorm Thunderstorm
4:53 PM 73.0 °F - 63.0 °F 71% 29.85 in 10.0 mi NE 8.1 mph - 0.00 in Thunderstorm Mostly Cloudy
5:02 PM 73.4 °F - 62.6 °F 69% 29.86 in 10.0 mi NE 5.8 mph - N/A Thunderstorm Scattered Clouds
5:53 PM 73.9 °F - 66.9 °F 79% 29.86 in 10.0 mi ENE 4.6 mph - 0.03 in Thunderstorm Partly Cloudy
6:05 PM 73.4 °F - 66.2 °F 78% 29.88 in 10.0 mi SE 5.8 mph - N/A   Scattered Clouds
6:53 PM 73.9 °F - 64.0 °F 71% 29.88 in 10.0 mi Calm Calm - N/A   Scattered Clouds
7:53 PM 71.1 °F - 64.9 °F 81% 29.89 in 10.0 mi NNE 4.6 mph - N/A   Mostly Cloudy
8:53 PM 70.0 °F - 64.9 °F 84% 29.90 in 10.0 mi ENE 3.5 mph - N/A   Mostly Cloudy
9:23 PM 69.8 °F - 64.4 °F 83% 29.91 in 10.0 mi East 3.5 mph - N/A Thunderstorm Mostly Cloudy
9:43 PM 68.0 °F - 64.4 °F 88% 29.93 in 9.0 mi Calm Calm - N/A   Mostly Cloudy
9:53 PM 69.1 °F - 64.9 °F 87% 29.92 in 10.0 mi SW 3.5 mph - 0.00 in Thunderstorm Mostly Cloudy
10:44 PM 69.8 °F - 66.2 °F 88% 29.93 in 9.0 mi Calm Calm - 0.02 in   Overcast
10:53 PM 68.0 °F - 64.9 °F 90% 29.92 in 8.0 mi West 4.6 mph - 0.02 in   Overcast
11:53 PM 68.0 °F - 64.9 °F 90% 29.91 in 9.0 mi NE 3.5 mph - N/A   Mostly Cloudy